Retour au catalogue

STARLINK-38010

ActifCommunicationsSSO
NORAD 69727·PAYLOAD·🇺🇸 United States

Lancé Jun 28, 2026 depuis Vandenberg Space Force Base

Loading…

Prochains Passages (prochaines 24 heures)

TLE

FraisSource: CelesTrak SupGP

Époque: Sep 15, 2026, 04:08 UTC

1 69727C 26147Z   26258.17270833 -.00054919  00000+0 -36944-3 0  2581
2 69727  97.2841 297.5901 0001015  92.2688 236.7006 15.75188906    14

Suivez STARLINK-38010 en temps réel avec AllMySat

Download on the App Store